Weather History for Marathon, FL

Change the Weather History Date:

Tuesday, November 1, 2011

  Actual Average Record
Temperature  
Mean Temperature 79 °F 78 °F  
Max Temperature 84 °F 83 °F 90 °F (2002)
Min Temperature 73 °F 73 °F 61 °F (2012)
Degree Days  
Heating Degree Days 0 0  
Month to date heating degree days 0 0  
Since 1 July heating degree days 0 0  
Cooling Degree Days 14 13  
Month to date cooling degree days 14 13  
Year to date cooling degree days 4793 4452  
Growing Degree Days 28 (Base 50)    
Moisture  
Dew Point 70 °F    
Average Humidity 76    
Maximum Humidity 87    
Minimum Humidity 65    
Precipitation  
Precipitation 0.00 in 0.16 in 0.24 in (1999)
Month to date precipitation 0.00 0.16  
Year to date precipitation 35.51 41.49  
Snow  
Snow 0.00 in - - ()
Month to date snowfall 0.0  
Since 1 July snowfall 0.0  
Since 1 September snowfall 0.0  
Snow Depth -    
Sea Level Pressure  
Sea Level Pressure 30.01 in    
Wind  
Wind Speed 14 mph (NE)    
Max Wind Speed 21 mph    
Max Gust Speed 28 mph    
Visibility 10 miles    
Events      
T = Trace of Precipitation, MM = Missing Value Source: NWS Daily Summary

Daily Weather History Graph

Daily Weather History Graph

Search for Another Location

Airport:

Trip Planner

Search our weather history database for the weather conditions in past years. The results will help you decide how hot, cold, wet, or windy it might be!

Date:

Astronomy

Nov. 01, 2011 Rise Set
Actual Time 7:31 AM EDT 6:44 PM EDT
Civil Twilight 7:07 AM EDT 7:07 PM EDT
Nautical Twilight 6:40 AM EDT 7:34 PM EDT
Astronomical Twilight 6:13 AM EDT 8:01 PM EDT
Moon 1:10 PM EDT (11/1) No Moon Set
Length of Visible Light 11h 59m
Length of Day
11h 13m
Waxing Crescent, 39% of the Moon is Illuminated
Nov 1
Waxing Crescent
Nov 2
First Quarter
Nov 10
Full
Nov 18
Last Quarter
Nov 25
New

Hourly Weather History & Observations

Time (EDT) Temp. Heat Index Dew Point Humidity Pressure Visibility Wind Dir Wind Speed Gust Speed Precip Events Conditions
12:20 AM 73.4 °F - 69.8 °F 88% 30.00 in 10.0 mi NNE 13.8 mph - N/A   Mostly Cloudy
12:53 AM 73.9 °F - 70.0 °F 87% 29.99 in 10.0 mi NNE 10.4 mph - N/A   Scattered Clouds
1:53 AM 73.9 °F - 70.0 °F 87% 29.99 in 10.0 mi NNE 12.7 mph - N/A   Mostly Cloudy
2:21 AM 73.4 °F - 69.8 °F 88% 29.98 in 10.0 mi NNE 12.7 mph 20.7 mph N/A   Overcast
2:53 AM 73.9 °F - 70.0 °F 87% 29.97 in 10.0 mi NNE 11.5 mph - N/A   Overcast
3:53 AM 73.9 °F - 70.0 °F 87% 29.97 in 10.0 mi NNE 10.4 mph - N/A   Overcast
4:53 AM 73.0 °F - 70.0 °F 90% 29.97 in 10.0 mi NNE 10.4 mph - N/A   Overcast
5:53 AM 73.0 °F - 69.1 °F 87% 29.98 in 10.0 mi NNE 10.4 mph - N/A   Overcast
6:53 AM 73.0 °F - 70.0 °F 90% 29.99 in 10.0 mi NNE 10.4 mph - N/A   Overcast
7:53 AM 73.0 °F - 70.0 °F 90% 30.00 in 10.0 mi NNE 13.8 mph - N/A   Overcast
8:07 AM 73.4 °F - 69.8 °F 88% 30.01 in 10.0 mi NNE 13.8 mph 25.3 mph N/A   Overcast
9:13 AM 73.4 °F - 69.8 °F 88% 30.02 in 10.0 mi NNE 15.0 mph 21.9 mph N/A   Overcast
9:53 AM 75.0 °F - 70.0 °F 84% 30.03 in 10.0 mi NNE 13.8 mph 20.7 mph N/A   Overcast
10:30 AM 78.8 °F - 71.6 °F 78% 30.04 in 10.0 mi NNE 11.5 mph 24.2 mph N/A   Scattered Clouds
10:53 AM 78.1 °F - 70.0 °F 76% 30.04 in 10.0 mi NNE 13.8 mph 21.9 mph N/A   Scattered Clouds
11:53 AM 80.1 °F 83.6 °F 71.1 °F 74% 30.04 in 10.0 mi NE 13.8 mph 19.6 mph N/A   Clear
12:53 PM 81.0 °F 85.2 °F 72.0 °F 74% 30.03 in 10.0 mi NE 13.8 mph - N/A   Clear
2:53 PM 84.0 °F 88.4 °F 70.0 °F 63% 29.99 in 10.0 mi ENE 15.0 mph - N/A   Clear
3:53 PM 82.9 °F 87.0 °F 70.0 °F 65% 29.98 in 10.0 mi ENE 16.1 mph 23.0 mph N/A   Clear
5:53 PM 81.0 °F 83.8 °F 68.0 °F 65% 29.99 in 10.0 mi ENE 15.0 mph 23.0 mph N/A   Clear
6:53 PM 80.1 °F 82.9 °F 69.1 °F 69% 30.01 in 10.0 mi ENE 17.3 mph - N/A   Clear
7:53 PM 79.0 °F - 70.0 °F 74% 30.02 in 10.0 mi NE 17.3 mph 24.2 mph N/A   Clear
8:53 PM 78.1 °F - 70.0 °F 76% 30.04 in 10.0 mi NE 17.3 mph 26.5 mph N/A   Scattered Clouds
9:53 PM 77.0 °F - 70.0 °F 79% 30.05 in 10.0 mi NE 13.8 mph 21.9 mph N/A   Partly Cloudy
10:53 PM 77.0 °F - 70.0 °F 79% 30.06 in 10.0 mi NE 16.1 mph 24.2 mph N/A   Clear
11:53 PM 75.9 °F - 71.1 °F 85% 30.05 in 10.0 mi NNE 16.1 mph - N/A   Overcast